Powrót do katalogu

TITAN 3C TRANSTAGE DEB

AktywnyGEO
NORAD 43517·DEBRIS·🇺🇸 United States

Wystrzelony Feb 9, 1969 z Cape Canaveral Space Force Station

Loading…

TLE

ŚwieżeSource: Space-Track

Epoka: Sep 3, 2026, 21:45 UTC

1 43517U 69013V   26246.90649925 -.00000130  00000-0  00000-0 0  9998
2 43517   1.5375 103.2372 0074574 178.3913 182.1337  0.94323557 28597

Śledź TITAN 3C TRANSTAGE DEB w czasie rzeczywistym z AllMySat

Download on the App Store